Regional Weather Roundup
Issued by NWS Cleveland, OH

Home | Current Version | Previous Version | Graphics & Text | Print | Product List | Glossary Off
Versions: 1 2 3 4 5 6 7 8 9 10 11 12 13 14 15 16 17 18 19 20 21 22 23 24 25 26 27 28 29 30 31 32 33 34 35 36 37 38 39 40 41 42 43 44 45 46 47 48 49 50

000
ASUS41 KCLE 271912
RWRCLE
OHIO REGIONAL WEATHER ROUNDUP
NATIONAL WEATHER SERVICE WILMINGTON, OH
300 PM EDT TUE SEP 27 2016

NOTE: "FAIR" INDICATES FEW OR NO CLOUDS BELOW 12,000 FEET WITH NO
SIGNIFICANT WEATHER AND/OR OBSTRUCTIONS TO VISIBILITY.

OHZ001>008-015>018-024>027-034-035-043-044-272000-
   NORTHWEST OHIO

CITY           SKY/WX    TMP DP  RH WIND       PRES   REMARKS
DEFIANCE       FAIR      71  34  25 W8G29     29.77F
FINDLAY        FAIR      74  34  23 SW24G30   29.78F
TOLEDO EXPRESS FAIR      70  35  27 W16G25    29.76F
TOLEDO EXEC    FAIR      71  35  26 SW24G32   29.77F
LIMA           FAIR      73  38  27 W21G30    29.80F
$$

OHZ009>014-019>023-028>033-038-089-272000-
   NORTHEAST OHIO

CITY           SKY/WX    TMP DP  RH WIND       PRES   REMARKS
CLE-HOPKINS    FAIR      74  37  26 SW24G38   29.80F
CLE-LAKEFRONT  FAIR      74  40  29 SW24G31   29.76F
CUY CO. ARPT   MOSUNNY   75  39  27 W14G23    29.79F
LORAIN-ELYRIA  FAIR      74  36  25 W22G28    29.79F
ASHTABULA      PTSUNNY   69  42  37 SW16G24   29.82F
AKRON-CANTON   FAIR      70  38  31 SW16G28   29.84F
WOOSTER        LGT RAIN  73  40  30 SW16G24   29.83F
MANSFIELD      FAIR      72  39  30 SW18G32   29.82F
YOUNGSTOWN     PTSUNNY   70  39  32 SW20G30   29.84F
$$

OHZ042-051>053-060>062-070>072-077>081-272000-
  SOUTHWEST OHIO

CITY           SKY/WX    TMP DP  RH WIND       PRES   REMARKS
CINC-COVINGTON FAIR      73  44  35 SW8G18    29.90F
CINC-LUNKEN    FAIR      74  46  36 SW15G22   29.90F
HAMILTON       FAIR      75  45  34 SW13G25   29.89F
DAYTON         FAIR      74  43  32 W22G30    29.86F
WRIGHT-PAT AFB FAIR      74  42  31 SW23      29.84F
DAYTON GENERAL FAIR      73  43  33 SW17G24   29.87F
WILMINGTON     FAIR      72  45  37 SW15G25   29.89F
$$

OHZ036-037-039>041-045>050-054>059-063>069-073>076-082>088-272000-
  CENTRAL AND SOUTHEAST OHIO

CITY           SKY/WX    TMP DP  RH WIND       PRES   REMARKS
COLUMBUS       FAIR      73  40  30 SW16G26   29.86F
OSU AIRPORT    FAIR      73  41  31 SW16G30   29.85F
BOLTON FIELD   SUNNY     73  43  33 SW17G28   29.88F
RICKENBACK AFB FAIR      73  40  30 W17G23    29.87F
NEWARK         FAIR      74  36  25 W17       29.86F
MARION         FAIR      73  37  27 W15G28    29.82F
LANCASTER      FAIR      74  37  26 SW16G23   29.88F
ZANESVILLE     FAIR      74  36  25 S12G24    29.88F
NEW PHILLY     FAIR      73  38  27 SW13G23   29.87F
$$




USA.gov is the U.S. government's official web portal to all federal, state and local government web resources and services.